Location: Newark
(25.5428°S, 54.5819°W)
Time: 04:37:59
(UTC+00:00)

Envisat - Pass Details

Date: 26 July 2019
Orbit: 764 x 766 km, 98.1° (Epoch: 20 August)

Event Time Altitude Azimuth Distance (km) Brightness Sun altitude
Exits shadow 22:03:53 - 152° (SSE) 2,719 5.4 -12.3°
Reaches altitude 10° 22:04:58 10° 148° (SSE) 2,323 5.1 -12.5°
Maximum altitude 22:09:39 36° 81° (E) 1,207 3.6 -13.6°
Drops below altitude 10° 22:14:17 10° 15° (NNE) 2,298 5.5 -14.6°
Sets 22:16:45 0° 6° (N) 3,216 6.3 -15.1°
